This is the latest recevied weather packets stored in our database for station/object KB1JLI. If no packets are shown the sender has not sent any weather packets the latest 10 day(s).
| Time | Temp. | Humidity | Pressure | Rain* | Wind** | Luminosity | Snow |
|---|---|---|---|---|---|---|---|
| 1777155850 | 10° C | 44% | 1017.2 hPa | 0 mm | - | 39 W/m² | - |
| 1777155544 | 10.56° C | 44% | 1017.5 hPa | 0 mm | - | 42 W/m² | - |
| 1777155243 | 10.56° C | 44% | 1017.5 hPa | 0 mm | - | 49 W/m² | - |
| 1777154939 | 10.56° C | 44% | 1017.3 hPa | 0 mm | - | 56 W/m² | - |
| 1777154636 | 10.56° C | 44% | 1017.3 hPa | 0 mm | - | 62 W/m² | - |
| 1777154333 | 10.56° C | 43% | 1017.3 hPa | 0 mm | - | 68 W/m² | - |
| 1777154028 | 10.56° C | 44% | 1017.4 hPa | 0 mm | - | 71 W/m² | - |
| 1777153724 | 10.56° C | 43% | 1017.7 hPa | 0 mm | - | 75 W/m² | - |
| 1777153421 | 10.56° C | 44% | 1017.6 hPa | 0 mm | - | 78 W/m² | - |
| 1777153117 | 10.56° C | 44% | 1017.3 hPa | 0 mm | - | 84 W/m² | - |
| 1777152813 | 10° C | 43% | 1017.4 hPa | 0 mm | - | 91 W/m² | - |
| 1777152509 | 10.56° C | 43% | 1017.4 hPa | 0 mm | - | 95 W/m² | - |
| 1777152206 | 10.56° C | 43% | 1017.5 hPa | 0 mm | - | 100 W/m² | - |
| 1777151901 | 10.56° C | 43% | 1017.4 hPa | 0 mm | - | 105 W/m² | - |
| 1777151597 | 10.56° C | 43% | 1017.2 hPa | 0 mm | - | 108 W/m² | - |
| 1777151295 | 10.56° C | 42% | 1017.3 hPa | 0 mm | - | 110 W/m² | - |
| 1777150995 | 10.56° C | 43% | 1017.5 hPa | 0 mm | - | 116 W/m² | - |
| 1777150690 | 11.11° C | 42% | 1017.3 hPa | 0 mm | - | 126 W/m² | - |
| 1777150386 | 11.11° C | 42% | 1017.3 hPa | 0 mm | - | 141 W/m² | - |
| 1777150083 | 10.56° C | 42% | 1017.6 hPa | 0 mm | - | 145 W/m² | - |
| 1777149778 | 10.56° C | 42% | 1017.5 hPa | 0 mm | - | 150 W/m² | - |
| 1777149475 | 10.56° C | 42% | 1017.5 hPa | 0 mm | - | 165 W/m² | - |
| 1777149172 | 10.56° C | 42% | 1017.7 hPa | 0 mm | - | 163 W/m² | - |
| 1777148871 | 10.56° C | 42% | 1017.6 hPa | 0 mm | - | 167 W/m² | - |
| 1777148569 | 10.56° C | 42% | 1017.6 hPa | 0 mm | - | 181 W/m² | - |
* Rain latest hour (hover to see other rain measurements)
** Current wind speed in m/s (hover to see current wind gust speed)